WGN6265 LFBO-LEZL

Flight info

Callsign WGN6265
Flight time 1h 20m
Altitude 37000
Route GAUDE DCT ZAR N869 BLN
Aircraft MD11/H-SDE1E2E3FGHIJ2J3J4J5M1RWXY/LB1D1

Departure

Time 2026-04-21 22:11
Airport Toulouse-Blagnac Airport (LFBO)

Arrival

Time 2026-04-21 23:31
Airport Seville Airport (LEZL)
Time Latitude Longitude Altitude Speed Heading
2026-04-21 21:51 43.62517 1.35749 501 ft 0 kts 323°
2026-04-21 22:00 43.62510 1.35756 501 ft 2 kts 325°
2026-04-21 22:01 43.62496 1.35769 501 ft 2 kts 329°
2026-04-21 22:01 43.62482 1.35780 501 ft 2 kts 337°
2026-04-21 22:01 43.62471 1.35785 501 ft 2 kts 349°
2026-04-21 22:01 43.62455 1.35786 501 ft 2 kts 32°
2026-04-21 22:02 43.62444 1.35774 501 ft 1 kts 52°
2026-04-21 22:02 43.62442 1.35771 501 ft 0 kts 52°
2026-04-21 22:02 43.62443 1.35771 501 ft 0 kts 52°
2026-04-21 22:04 43.62444 1.35771 501 ft 1 kts 47°
2026-04-21 22:05 43.62449 1.35778 501 ft 3 kts 45°
2026-04-21 22:05 43.62468 1.35809 501 ft 4 kts 54°
2026-04-21 22:05 43.62496 1.35864 501 ft 10 kts 54°
2026-04-21 22:05 43.62551 1.35972 501 ft 16 kts 56°
2026-04-21 22:06 43.62618 1.36076 501 ft 13 kts 24°
2026-04-21 22:06 43.62716 1.36046 501 ft 17 kts 324°
2026-04-21 22:06 43.62825 1.35934 501 ft 22 kts 322°
2026-04-21 22:06 43.62957 1.35794 501 ft 25 kts 323°
2026-04-21 22:07 43.63101 1.35643 501 ft 27 kts 323°
2026-04-21 22:07 43.63246 1.35496 501 ft 25 kts 324°
2026-04-21 22:07 43.63378 1.35358 501 ft 23 kts 322°
2026-04-21 22:07 43.63498 1.35233 501 ft 21 kts 322°
2026-04-21 22:08 43.63612 1.35114 501 ft 22 kts 323°
2026-04-21 22:08 43.63746 1.34975 483 ft 26 kts 323°
2026-04-21 22:08 43.63892 1.34823 501 ft 25 kts 323°
2026-04-21 22:08 43.64026 1.34683 501 ft 23 kts 323°
2026-04-21 22:09 43.64151 1.34553 501 ft 22 kts 323°
2026-04-21 22:09 43.64267 1.34450 501 ft 16 kts 348°
2026-04-21 22:09 43.64348 1.34507 501 ft 12 kts 47°
2026-04-21 22:09 43.64374 1.34604 501 ft 10 kts 95°
2026-04-21 22:10 43.64343 1.34663 501 ft 7 kts 139°
2026-04-21 22:10 43.64308 1.34701 501 ft 8 kts 142°
2026-04-21 22:10 43.64172 1.34843 501 ft 59 kts 143°
2026-04-21 22:10 43.63603 1.35435 501 ft 142 kts 143°
2026-04-21 22:11 43.62662 1.36420 775 ft 179 kts 143°
2026-04-21 22:11 43.61725 1.37399 2004 ft 166 kts 141°
2026-04-21 22:11 43.60767 1.38379 2971 ft 173 kts 142°
2026-04-21 22:11 43.59783 1.39392 3868 ft 184 kts 142°
2026-04-21 22:12 43.58641 1.40570 4129 ft 225 kts 143°
2026-04-21 22:12 43.57285 1.41963 4298 ft 260 kts 143°
2026-04-21 22:12 43.55816 1.43474 5227 ft 266 kts 144°
2026-04-21 22:12 43.54316 1.45014 6276 ft 272 kts 145°
2026-04-21 22:13 43.52778 1.46592 7232 ft 279 kts 145°
2026-04-21 22:13 43.51193 1.48202 8152 ft 286 kts 147°
2026-04-21 22:13 43.49447 1.49469 9050 ft 287 kts 165°
2026-04-21 22:13 43.47471 1.49745 9967 ft 286 kts 191°
2026-04-21 22:14 43.45536 1.48879 10237 ft 310 kts 213°
2026-04-21 22:14 43.43856 1.46832 10385 ft 338 kts 235°
2026-04-21 22:14 43.42720 1.43939 10978 ft 348 kts 247°
2026-04-21 22:14 43.41724 1.40881 11882 ft 353 kts 246°
2026-04-21 22:15 43.40604 1.37850 12811 ft 357 kts 242°
2026-04-21 22:15 43.39335 1.34885 13697 ft 362 kts 239°
2026-04-21 22:15 43.37942 1.31961 14470 ft 367 kts 237°
2026-04-21 22:15 43.36465 1.29064 15223 ft 371 kts 236°
2026-04-21 22:16 43.34953 1.26212 15946 ft 375 kts 235°
2026-04-21 22:16 43.33382 1.23311 16681 ft 380 kts 234°
2026-04-21 22:16 43.31786 1.20395 17402 ft 384 kts 234°
2026-04-21 22:16 43.30165 1.17450 18100 ft 387 kts 234°
2026-04-21 22:17 43.28531 1.14489 18709 ft 391 kts 234°
2026-04-21 22:17 43.26876 1.11494 19303 ft 395 kts 234°
2026-04-21 22:17 43.25228 1.08513 19845 ft 398 kts 234°
2026-04-21 22:17 43.23548 1.05479 20430 ft 402 kts 234°
2026-04-21 22:18 43.21841 1.02397 21005 ft 405 kts 234°
2026-04-21 22:18 43.20125 0.99302 21583 ft 409 kts 234°
2026-04-21 22:18 43.18417 0.96225 22159 ft 412 kts 234°
2026-04-21 22:18 43.16668 0.93077 22754 ft 416 kts 234°
2026-04-21 22:19 43.14900 0.89897 23358 ft 420 kts 234°
2026-04-21 22:19 43.13118 0.86696 23893 ft 423 kts 234°
2026-04-21 22:19 43.11326 0.83482 24470 ft 426 kts 234°
2026-04-21 22:19 43.09519 0.80244 25034 ft 428 kts 234°
2026-04-21 22:20 43.07724 0.77032 25627 ft 431 kts 234°
2026-04-21 22:20 43.05882 0.73738 26207 ft 434 kts 234°
2026-04-21 22:20 43.04065 0.70491 26770 ft 436 kts 234°
2026-04-21 22:20 43.02149 0.67190 27323 ft 440 kts 231°
2026-04-21 22:21 43.00065 0.64158 27871 ft 444 kts 227°
2026-04-21 22:21 42.97827 0.61219 28431 ft 447 kts 225°
2026-04-21 22:21 42.95534 0.58320 28990 ft 450 kts 225°
2026-04-21 22:21 42.93246 0.55447 29510 ft 453 kts 225°
2026-04-21 22:22 42.90923 0.52517 29961 ft 455 kts 225°
2026-04-21 22:22 42.88596 0.49561 30439 ft 456 kts 225°
2026-04-21 22:22 42.86274 0.46597 30964 ft 455 kts 225°
2026-04-21 22:22 42.84000 0.43687 31538 ft 453 kts 226°
2026-04-21 22:23 42.81701 0.40743 32122 ft 451 kts 226°
2026-04-21 22:23 42.79409 0.37808 32672 ft 449 kts 226°
2026-04-21 22:23 42.77133 0.34895 33156 ft 448 kts 226°
2026-04-21 22:23 42.74883 0.32020 33660 ft 446 kts 226°
2026-04-21 22:24 42.72617 0.29127 34161 ft 444 kts 226°
2026-04-21 22:24 42.70356 0.26244 34518 ft 444 kts 226°
2026-04-21 22:24 42.68130 0.23409 34892 ft 443 kts 226°
2026-04-21 22:24 42.65881 0.20547 35292 ft 442 kts 226°
2026-04-21 22:25 42.63634 0.17691 35644 ft 442 kts 226°
2026-04-21 22:25 42.61384 0.14835 36025 ft 440 kts 225°
2026-04-21 22:25 42.59153 0.12005 36416 ft 438 kts 225°
2026-04-21 22:25 42.56930 0.09189 36813 ft 437 kts 225°
2026-04-21 22:26 42.54703 0.06369 36952 ft 439 kts 225°
2026-04-21 22:26 42.50251 0.00742 36970 ft 440 kts 225°
2026-04-21 22:27 42.45769 -0.04910 36964 ft 440 kts 225°
2026-04-21 22:27 42.41262 -0.10578 36960 ft 441 kts 225°
2026-04-21 22:28 42.36749 -0.16201 36959 ft 441 kts 225°
2026-04-21 22:28 42.32241 -0.21825 36965 ft 441 kts 225°
2026-04-21 22:29 42.27758 -0.27427 36975 ft 442 kts 225°
2026-04-21 22:29 42.23235 -0.33073 36983 ft 442 kts 225°
2026-04-21 22:30 42.18714 -0.38705 36986 ft 442 kts 225°
2026-04-21 22:30 42.14210 -0.44304 36989 ft 442 kts 224°
2026-04-21 22:31 42.09660 -0.49950 36978 ft 443 kts 224°
2026-04-21 22:31 42.05153 -0.55530 36966 ft 443 kts 224°
2026-04-21 22:32 42.00606 -0.61148 36951 ft 443 kts 224°
2026-04-21 22:32 41.96081 -0.66727 36925 ft 442 kts 224°
2026-04-21 22:33 41.91533 -0.72323 36904 ft 442 kts 224°
2026-04-21 22:33 41.87025 -0.77860 36891 ft 442 kts 224°
2026-04-21 22:34 41.82486 -0.83423 36887 ft 442 kts 224°
2026-04-21 22:34 41.77933 -0.88970 36882 ft 442 kts 224°
2026-04-21 22:35 41.73373 -0.94497 36883 ft 442 kts 224°
2026-04-21 22:35 41.68798 -0.99997 36880 ft 442 kts 221°
2026-04-21 22:36 41.61326 -1.07214 36880 ft 443 kts 217°
2026-04-21 22:36 41.56208 -1.11848 36883 ft 443 kts 217°
2026-04-21 22:37 41.51161 -1.16460 36885 ft 442 kts 217°
2026-04-21 22:37 41.46075 -1.21132 36889 ft 442 kts 217°
2026-04-21 22:38 41.41044 -1.25751 36896 ft 441 kts 217°
2026-04-21 22:38 41.35975 -1.30396 36910 ft 441 kts 217°
2026-04-21 22:39 41.30944 -1.34996 36920 ft 441 kts 217°
2026-04-21 22:39 41.25878 -1.39609 36924 ft 440 kts 217°
2026-04-21 22:40 41.20811 -1.44198 36932 ft 440 kts 217°
2026-04-21 22:40 41.15768 -1.48760 36941 ft 440 kts 217°
2026-04-21 22:41 41.10700 -1.53340 36945 ft 440 kts 217°
2026-04-21 22:41 41.05662 -1.57888 36948 ft 439 kts 217°
2026-04-21 22:42 41.00610 -1.62442 36953 ft 438 kts 217°
2026-04-21 22:42 40.95560 -1.66985 36961 ft 438 kts 217°
2026-04-21 22:43 40.90543 -1.71489 36965 ft 437 kts 217°
2026-04-21 22:43 40.85495 -1.76014 36972 ft 438 kts 216°
2026-04-21 22:44 40.80472 -1.80507 36977 ft 438 kts 217°
2026-04-21 22:44 40.75416 -1.85008 36980 ft 438 kts 216°
2026-04-21 22:45 40.70351 -1.89503 36984 ft 438 kts 216°
2026-04-21 22:45 40.65322 -1.93967 36987 ft 437 kts 216°
2026-04-21 22:46 40.60259 -1.98458 36984 ft 438 kts 216°
2026-04-21 22:46 40.55199 -2.02939 36988 ft 438 kts 216°
2026-04-21 22:47 40.50165 -2.07385 36987 ft 438 kts 216°
2026-04-21 22:47 40.45102 -2.11841 36989 ft 438 kts 216°
2026-04-21 22:48 40.40061 -2.16274 36983 ft 438 kts 216°
2026-04-21 22:48 40.34981 -2.20735 36983 ft 439 kts 216°
2026-04-21 22:49 40.29920 -2.25175 36975 ft 439 kts 216°
2026-04-21 22:49 40.24830 -2.29633 36986 ft 439 kts 216°
2026-04-21 22:50 40.19776 -2.34053 36981 ft 439 kts 216°
2026-04-21 22:50 40.14681 -2.38499 36970 ft 439 kts 215°
2026-04-21 22:51 40.10439 -2.42195 36967 ft 440 kts 215°
2026-04-21 22:51 40.05333 -2.46637 36961 ft 440 kts 215°
2026-04-21 22:52 40.00263 -2.51039 36959 ft 440 kts 215°
2026-04-21 22:52 39.95155 -2.55466 36957 ft 440 kts 215°
2026-04-21 22:53 39.90051 -2.59882 36961 ft 440 kts 215°
2026-04-21 22:53 39.84964 -2.64275 36955 ft 440 kts 215°
2026-04-21 22:54 39.79851 -2.68682 36952 ft 440 kts 215°
2026-04-21 22:54 39.74761 -2.73061 36954 ft 441 kts 215°
2026-04-21 22:55 39.69632 -2.77454 36947 ft 441 kts 214°
2026-04-21 22:55 39.64527 -2.81811 36944 ft 440 kts 215°
2026-04-21 22:56 39.59412 -2.86196 36942 ft 440 kts 215°
2026-04-21 22:56 39.54317 -2.90567 36938 ft 440 kts 215°
2026-04-21 22:57 39.49191 -2.94958 36938 ft 440 kts 215°
2026-04-21 22:57 39.44107 -2.99306 36931 ft 440 kts 215°
2026-04-21 22:58 39.38819 -3.03322 36928 ft 442 kts 206°
2026-04-21 22:58 39.33109 -3.06228 36934 ft 443 kts 202°
2026-04-21 22:59 39.27287 -3.08943 36930 ft 443 kts 202°
2026-04-21 22:59 39.21529 -3.11690 36933 ft 443 kts 202°
2026-04-21 23:00 39.15751 -3.14493 36932 ft 443 kts 202°
2026-04-21 23:00 39.09965 -3.17309 36930 ft 442 kts 203°
2026-04-21 23:01 39.04483 -3.19972 36930 ft 442 kts 202°
2026-04-21 23:01 38.98748 -3.22747 36938 ft 442 kts 202°
2026-04-21 23:02 38.92964 -3.25526 36933 ft 442 kts 202°
2026-04-21 23:02 38.87223 -3.28283 36935 ft 442 kts 202°
2026-04-21 23:03 38.81449 -3.31054 36938 ft 442 kts 202°
2026-04-21 23:03 38.75715 -3.33802 36937 ft 442 kts 202°
2026-04-21 23:04 38.69939 -3.36566 36940 ft 442 kts 202°
2026-04-21 23:04 38.64179 -3.39316 36938 ft 442 kts 202°
2026-04-21 23:05 38.58482 -3.42033 36937 ft 442 kts 202°
2026-04-21 23:05 38.53174 -3.44601 36943 ft 442 kts 203°
2026-04-21 23:06 38.47404 -3.47392 36942 ft 442 kts 202°
2026-04-21 23:06 38.41638 -3.50151 36939 ft 442 kts 202°
2026-04-21 23:07 38.35885 -3.52887 36946 ft 442 kts 202°
2026-04-21 23:07 38.30110 -3.55628 36945 ft 442 kts 202°
2026-04-21 23:08 38.24377 -3.58393 36938 ft 442 kts 205°
2026-04-21 23:08 38.19057 -3.62240 36941 ft 438 kts 220°
2026-04-21 23:09 38.14955 -3.67858 36943 ft 437 kts 237°
2026-04-21 23:09 38.12332 -3.74736 36781 ft 425 kts 251°
2026-04-21 23:10 38.11525 -3.78302 36574 ft 416 kts 255°
2026-04-21 23:10 38.10828 -3.81873 36241 ft 417 kts 255°
2026-04-21 23:10 38.10145 -3.85456 35765 ft 418 kts 255°
2026-04-21 23:10 38.09443 -3.89058 35208 ft 419 kts 255°
2026-04-21 23:11 38.08719 -3.92653 34667 ft 422 kts 254°
2026-04-21 23:11 38.07984 -3.96216 34134 ft 424 kts 254°
2026-04-21 23:11 38.07223 -3.99850 33552 ft 427 kts 254°
2026-04-21 23:11 38.06452 -4.03500 32966 ft 428 kts 254°
2026-04-21 23:12 38.05676 -4.07160 32409 ft 429 kts 254°
2026-04-21 23:12 38.04897 -4.10820 31849 ft 430 kts 254°
2026-04-21 23:12 38.04113 -4.14503 31278 ft 431 kts 254°
2026-04-21 23:12 38.03338 -4.18133 30714 ft 431 kts 254°
2026-04-21 23:13 38.02553 -4.21807 30129 ft 432 kts 254°
2026-04-21 23:13 38.01765 -4.25492 29478 ft 432 kts 254°
2026-04-21 23:13 38.00971 -4.29196 28853 ft 434 kts 254°
2026-04-21 23:13 38.00184 -4.32864 28268 ft 436 kts 254°
2026-04-21 23:14 37.99386 -4.36575 27681 ft 437 kts 254°
2026-04-21 23:14 37.98582 -4.40306 27080 ft 439 kts 254°
2026-04-21 23:14 37.97778 -4.44032 26453 ft 437 kts 254°
2026-04-21 23:14 37.96978 -4.47735 25830 ft 433 kts 254°
2026-04-21 23:15 37.96184 -4.51402 25213 ft 429 kts 254°
2026-04-21 23:15 37.95405 -4.54998 24603 ft 426 kts 254°
2026-04-21 23:15 37.94623 -4.58600 24000 ft 422 kts 254°
2026-04-21 23:15 37.93841 -4.62192 23366 ft 419 kts 254°
2026-04-21 23:16 37.93070 -4.65732 22686 ft 415 kts 254°
2026-04-21 23:16 37.92303 -4.69248 22074 ft 411 kts 254°
2026-04-21 23:16 37.91550 -4.72693 21481 ft 408 kts 254°
2026-04-21 23:16 37.90795 -4.76138 20891 ft 404 kts 253°
2026-04-21 23:17 37.90036 -4.79550 20322 ft 401 kts 253°
2026-04-21 23:17 37.89277 -4.82934 19743 ft 397 kts 253°
2026-04-21 23:17 37.88524 -4.86302 19177 ft 394 kts 253°
2026-04-21 23:17 37.87783 -4.89634 18612 ft 391 kts 253°
2026-04-21 23:18 37.87057 -4.92905 18035 ft 388 kts 253°
2026-04-21 23:18 37.86330 -4.96189 17420 ft 384 kts 253°
2026-04-21 23:18 37.85610 -4.99440 16851 ft 381 kts 253°
2026-04-21 23:18 37.84905 -5.02625 16307 ft 378 kts 253°
2026-04-21 23:19 37.84195 -5.05822 15764 ft 375 kts 253°
2026-04-21 23:19 37.83491 -5.08995 15226 ft 372 kts 252°
2026-04-21 23:19 37.82794 -5.12127 14694 ft 369 kts 252°
2026-04-21 23:19 37.82099 -5.15250 14165 ft 367 kts 252°
2026-04-21 23:20 37.81409 -5.18342 13631 ft 364 kts 252°
2026-04-21 23:20 37.80723 -5.21412 13077 ft 361 kts 252°
2026-04-21 23:20 37.80045 -5.24439 12537 ft 359 kts 252°
2026-04-21 23:20 37.79367 -5.27464 12023 ft 356 kts 252°
2026-04-21 23:21 37.78692 -5.30475 11517 ft 354 kts 252°
2026-04-21 23:21 37.78020 -5.33463 11136 ft 351 kts 252°
2026-04-21 23:21 37.77333 -5.36420 10945 ft 344 kts 249°
2026-04-21 23:21 37.76292 -5.38967 10826 ft 320 kts 232°
2026-04-21 23:22 37.74824 -5.40979 10730 ft 301 kts 223°
2026-04-21 23:22 37.73326 -5.42689 10615 ft 286 kts 221°
2026-04-21 23:22 37.71859 -5.44299 10502 ft 273 kts 221°
2026-04-21 23:22 37.70427 -5.45870 10353 ft 271 kts 221°
2026-04-21 23:23 37.69000 -5.47446 10021 ft 270 kts 221°
2026-04-21 23:23 37.67466 -5.48747 9503 ft 270 kts 206°
2026-04-21 23:23 37.65732 -5.49669 9043 ft 271 kts 202°
2026-04-21 23:23 37.63976 -5.50515 8670 ft 268 kts 202°
2026-04-21 23:24 37.62238 -5.51347 8228 ft 265 kts 202°
2026-04-21 23:24 37.60510 -5.52177 7826 ft 264 kts 201°
2026-04-21 23:24 37.58818 -5.52994 7462 ft 263 kts 201°
2026-04-21 23:24 37.57118 -5.53820 7138 ft 262 kts 202°
2026-04-21 23:25 37.55408 -5.54652 6831 ft 261 kts 201°
2026-04-21 23:25 37.53718 -5.55477 6575 ft 260 kts 202°
2026-04-21 23:25 37.52048 -5.56292 6389 ft 258 kts 202°
2026-04-21 23:25 37.50367 -5.57113 6232 ft 259 kts 202°
2026-04-21 23:26 37.48671 -5.57941 5884 ft 260 kts 201°
2026-04-21 23:26 37.47009 -5.58758 5518 ft 259 kts 201°
2026-04-21 23:26 37.45372 -5.59672 5133 ft 255 kts 213°
2026-04-21 23:26 37.44051 -5.61138 4780 ft 253 kts 226°
2026-04-21 23:27 37.42950 -5.62831 4430 ft 244 kts 231°
2026-04-21 23:27 37.42009 -5.64543 4039 ft 232 kts 243°
2026-04-21 23:27 37.41697 -5.66491 3668 ft 225 kts 268°
2026-04-21 23:27 37.41784 -5.68432 3307 ft 220 kts 272°
2026-04-21 23:28 37.41866 -5.70272 3034 ft 204 kts 269°
2026-04-21 23:28 37.41863 -5.71978 2981 ft 191 kts 267°
2026-04-21 23:28 37.41847 -5.73630 2863 ft 185 kts 268°
2026-04-21 23:28 37.41838 -5.75258 3031 ft 188 kts 267°
2026-04-21 23:29 37.41830 -5.76878 2636 ft 182 kts 268°
2026-04-21 23:29 37.41826 -5.78408 2129 ft 168 kts 268°
2026-04-21 23:29 37.41822 -5.79833 1726 ft 159 kts 268°
2026-04-21 23:29 37.41818 -5.81216 1345 ft 157 kts 269°
2026-04-21 23:30 37.41812 -5.82589 1022 ft 156 kts 269°
2026-04-21 23:30 37.41816 -5.83935 712 ft 154 kts 268°
2026-04-21 23:30 37.41812 -5.85287 478 ft 154 kts 268°
2026-04-21 23:30 37.41806 -5.86636 276 ft 153 kts 268°
2026-04-21 23:31 37.41795 -5.87965 115 ft 145 kts 270°
2026-04-21 23:31 37.41795 -5.88999 110 ft 89 kts 270°
2026-04-21 23:31 37.41793 -5.89539 106 ft 45 kts 269°
2026-04-21 23:31 37.41846 -5.89791 106 ft 21 kts 324°
2026-04-21 23:32 37.41951 -5.89847 105 ft 6 kts
2026-04-21 23:32 37.41973 -5.89811 103 ft 8 kts 68°
2026-04-21 23:32 37.41982 -5.89705 104 ft 17 kts 89°
2026-04-21 23:32 37.41983 -5.89536 105 ft 21 kts 90°
2026-04-21 23:33 37.41983 -5.89350 106 ft 20 kts 89°
2026-04-21 23:33 37.41983 -5.89181 107 ft 20 kts 90°
2026-04-21 23:33 37.41985 -5.88989 109 ft 23 kts 89°
2026-04-21 23:33 37.41986 -5.88818 110 ft 14 kts 93°
2026-04-21 23:34 37.41954 -5.88764 110 ft 8 kts 161°
2026-04-21 23:34 37.41868 -5.88769 111 ft 16 kts 190°
2026-04-21 23:34 37.41739 -5.88799 110 ft 22 kts 191°
2026-04-21 23:34 37.41584 -5.88836 110 ft 22 kts 190°
2026-04-21 23:35 37.41439 -5.88870 107 ft 20 kts 191°
2026-04-21 23:35 37.41308 -5.88893 103 ft 12 kts 165°
2026-04-21 23:35 37.41282 -5.88822 104 ft 10 kts 93°
2026-04-21 23:35 37.41282 -5.88735 106 ft 10 kts 90°
2026-04-21 23:36 37.41284 -5.88642 107 ft 11 kts 88°
2026-04-21 23:36 37.41311 -5.88591 107 ft 4 kts 28°
2026-04-21 23:36 37.41329 -5.88584 107 ft 2 kts 14°
2026-04-21 23:36 37.41339 -5.88584 107 ft 0 kts